Theta_e
293 292 292 291 291 292 292 292 292 292 292 292 292 293 293 293 295 293 292 292 293 289 289 294 295 293 294 296 296 293 296 296 299 303 304 304 306 304 306 304 310 311 311 309 307 297 309 299 301 307 306 303 302 304
291 291 293 291 291 292 292 292 292 292 292 291 292 294 293 293 295 294 291 292 292 289 289 294 295 295 295 295 296 295 295 295 299 301 304 301 303 300 304 308 304 308 307 305 306 309 301 302 302 301 301 302 301 302
291 293 293 291 290 291 292 292 293 292 292 291 292 294 294 295 295 293 292 292 293 293 292 292 292 294 295 297 297 298 298 297 297 298 298 303 301 303 306 302 304 303 301 303 303 303 301 301 301 302 303 302 299 301
292 291 291 291 290 290 292 292 293 292 292 291 291 292 294 294 294 293 292 292 292 292 291 288 292 292 295 296 296 297 298 299 297 296 295 297 303 300 302 303 305 300 300 296 299 301 301 300 301 302 300 297 298 298
291 291 290 291 291 292 292 292 293 292 291 292 293 293 294 295 295 292 293 293 293 292 289 282 291 292 294 294 295 295 296 298 298 300 290 295 297 300 299 299 299 296 300 305 304 301 302 301 300 299 299 298 297 296
290 292 292 291 290 291 291 291 292 292 291 291 292 293 294 294 292 292 293 292 293 294 287 292 284 291 293 293 294 295 295 295 298 300 297 290 293 299 300 304 303 298 297 299 302 298 300 299 298 296 297 296 295 295
291 292 292 292 292 291 291 292 293 292 291 291 292 293 293 294 293 291 289 290 292 293 290 285 287 292 293 294 295 296 296 296 298 298 299 298 298 295 295 298 299 298 297 297 295 297 299 296 298 293 292 289 288 289
291 291 292 292 292 293 293 292 293 292 291 291 293 293 293 294 293 291 293 293 293 292 290 287 292 293 292 296 296 295 297 296 296 296 294 297 295 295 292 298 297 295 295 295 297 296 298 291 288 286 288 290 289 288
290 292 291 292 294 294 293 293 292 291 291 292 293 293 291 292 291 292 293 293 293 291 290 289 295 295 289 292 293 293 296 297 292 295 297 298 296 301 296 293 296 295 295 296 289 289 292 292 289 288 289 289 288 287
292 293 292 292 294 294 294 293 293 293 293 292 291 289 290 291 292 292 292 291 290 286 282 284 284 294 291 291 290 294 290 294 294 291 292 297 295 287 284 283 284 288 290 290 294 289 289 289 289 288 289 289 288 287
291 292 291 293 294 293 293 292 291 291 291 289 287 287 288 291 288 287 289 290 288 290 281 282 285 291 289 293 288 290 289 287 296 293 295 294 293 287 278 279 277 279 281 282 284 292 292 290 287 285 284 284 284 283
290 291 292 292 292 291 290 291 290 289 289 289 290 288 287 285 284 283 284 281 282 284 283 287 288 288 288 289 291 287 286 284 292 285 294 297 287 276 274 274 274 274 277 278 281 284 284 284 284 282 280 279 277 276
289 291 291 291 291 291 290 290 290 290 290 288 285 284 287 282 287 279 282 281 281 276 282 282 286 285 285 285 285 288 291 289 279 284 291 285 275 273 272 271 273 273 275 276 276 275 275 276 277 278 276 276 276 275
289 290 291 291 290 289 288 288 288 288 287 277 282 285 285 282 279 272 273 273 275 276 280 283 281 287 278 282 279 288 279 279 291 291 287 276 271 270 270 270 272 272 273 273 273 273 273 272 270 270 272 273 274 273
289 289 290 290 289 288 289 288 287 285 271 272 274 279 277 270 269 267 262 266 272 274 282 283 284 283 281 282 275 280 286 289 287 288 274 268 267 268 269 269 270 271 272 272 272 271 271 271 270 267 269 270 270 270
289 289 289 288 287 287 286 286 282 277 265 266 266 270 264 269 267 268 267 269 272 275 280 284 287 284 280 277 281 279 284 285 276 265 263 264 266 265 265 265 266 268 269 270 270 270 269 269 267 266 267 268 269 270
286 285 286 287 286 285 285 281 275 263 264 265 264 260 260 262 265 266 265 267 269 276 286 281 286 286 272 274 271 260 268 263 261 261 261 261 263 264 263 264 265 266 267 267 267 267 267 267 267 268 266 264 267 268
280 281 285 285 286 286 278 274 265 266 266 261 266 266 262 262 262 261 263 266 269 274 273 277 270 271 268 272 264 259 259 259 260 260 260 260 261 262 262 263 262 262 263 264 265 266 266 266 265 263 263 264 265 265
279 279 281 283 282 278 269 268 267 266 264 264 269 269 266 264 265 263 262 263 264 263 267 265 260 256 256 254 256 257 257 257 259 259 259 259 259 261 262 262 261 261 261 261 261 260 259 261 261 263 264 265 262 264
279 277 280 282 281 273 271 267 268 268 268 269 268 268 266 266 264 262 260 260 261 261 256 257 253 252 253 255 256 256 257 258 259 260 260 259 259 258 258 260 260 260 260 260 259 260 260 259 260 262 263 264 263 262
276 275 275 278 271 267 265 265 270 267 267 267 266 267 267 265 261 259 258 258 257 255 256 255 255 255 254 254 254 255 255 258 258 259 259 260 258 258 258 258 260 260 259 259 259 256 256 255 258 261 262 261 262 262
267 269 270 270 266 263 264 261 265 266 265 264 264 262 261 262 260 257 257 255 254 254 254 254 254 254 255 254 254 253 254 256 256 257 257 258 259 258 256 256 257 256 254 254 256 255 256 257 259 261 262 262 262 263
266 266 260 261 269 264 261 260 267 263 267 264 263 263 260 258 257 258 254 253 253 253 253 253 253 253 254 254 253 253 253 255 254 254 255 254 255 255 255 256 257 256 255 254 257 258 257 258 259 260 260 261 261 262
261 251 253 252 257 259 256 258 260 263 262 262 264 263 259 257 257 255 252 252 252 253 252 252 252 252 253 254 253 252 251 253 254 254 254 256 255 253 255 255 256 257 257 256 257 257 257 257 257 258 259 259 259 260
260 250 252 252 251 257 256 256 255 258 260 258 264 262 258 256 257 254 254 252 253 252 252 252 252 252 252 252 252 252 252 252 252 253 253 254 254 254 254 254 255 255 256 257 256 256 256 256 257 257 257 257 257 258
250 247 250 247 252 254 253 254 253 253 253 257 254 254 255 258 258 254 253 253 253 252 252 251 251 251 251 250 250 252 252 252 252 252 253 253 254 254 254 255 255 254 255 256 256 256 256 256 256 257 257 257 257 257
250 248 246 245 246 250 252 252 251 252 252 252 251 252 254 255 252 252 252 252 252 252 252 252 252 251 251 251 252 252 252 253 253 253 253 253 253 253 253 253 252 254 254 255 255 255 255 256 256 256 256 257 257 257
244 246 249 248 246 244 249 250 251 250 250 251 251 251 252 251 251 252 252 253 253 253 253 253 253 252 252 252 252 253 253 253 253 253 253 253 254 254 254 254 254 254 255 255 255 255 255 255 255 256 256 256 257 258
246 245 243 248 246 247 247 249 250 250 250 249 251 251 251 251 251 251 253 253 253 253 253 253 253 253 253 253 253 253 253 253 254 251 249 247 247 254 254 254 254 255 255 255 255 255 255 256 256 256 256 256 256 256
247 244 246 246 248 250 250 247 250 249 250 251 251 251 252 251 254 254 254 253 253 253 253 253 253 253 252 252 252 253 253 253 253 254 249 248 251 254 254 254 255 255 255 255 255 255 255 256 256 256 256 256 256 256
247 246 249 250 251 250 249 250 250 250 251 253 251 252 251 251 254 255 254 254 254 254 253 253 253 253 252 252 252 252 251 253 253 253 254 254 254 254 255 255 255 255 255 255 255 255 255 255 255 255 255 255 256 255
249 249 251 254 252 251 250 251 251 252 252 252 252 251 251 252 253 253 255 255 254 253 253 253 253 253 253 253 253 253 253 254 253 253 253 254 254 254 255 255 255 255 255 255 255 255 255 255 255 255 255 255 255 256
251 252 251 251 252 252 251 251 253 253 253 253 252 251 251 253 254 254 255 255 255 254 253 254 253 253 254 254 254 254 254 254 254 254 254 254 254 254 254 255 255 255 255 255 255 255 255 255 255 255 255 255 256 256
Wind_Speed
50 44 48 40 32 30 33 29 23 23 21 22 28 34 40 34 29 30 12 32 15 3 3 7 10 5 7 9 8 5 2 1 6 12 8 5 7 8 8 6 11 12 9 5 5 3 8 8 8 15 6 2 6 16
46 47 39 40 32 25 28 27 22 21 18 18 22 27 36 30 28 25 6 31 26 3 4 2 8 8 14 17 15 7 6 6 6 5 3 3 3 2 5 4 3 5 7 7 9 7 2 18 1 6 2 4 4 9
47 18 17 29 25 23 24 25 20 20 18 15 15 21 26 26 23 22 12 23 10 4 1 1 5 10 13 13 20 5 1 4 3 3 3 1 5 6 5 3 3 1 1 5 4 7 6 17 3 2 2 3 5 6
39 24 1 13 18 21 22 22 19 20 16 9 21 25 22 21 26 24 18 25 12 3 3 4 2 4 18 18 15 7 6 7 4 1 2 2 5 2 2 6 3 4 6 6 4 2 3 4 3 5 3 6 10 9
37 30 14 9 17 20 21 19 19 22 18 12 10 17 20 20 25 25 24 24 16 3 4 2 3 8 11 23 17 12 3 5 3 5 2 3 2 2 3 3 3 5 7 7 6 6 4 6 11 8 8 7 15 16
40 35 17 17 14 14 15 15 21 24 21 16 14 14 17 17 26 13 3 16 26 8 3 2 2 5 10 15 10 12 10 3 3 2 3 2 2 3 3 5 5 4 4 2 3 5 2 5 10 7 8 10 9 14
40 28 20 11 20 23 22 18 27 26 22 17 14 15 16 22 23 3 4 6 26 13 2 1 3 3 5 6 3 3 5 3 3 2 3 2 2 4 2 2 8 14 11 6 7 8 4 2 7 8 10 10 11 11
43 30 13 10 9 21 26 27 30 26 22 18 17 17 15 22 11 2 4 17 26 6 2 2 2 2 3 3 4 3 5 3 3 3 1 3 3 2 2 9 4 4 5 5 12 1 5 11 11 9 13 17 17 15
46 8 3 4 8 10 22 33 30 28 24 20 21 27 9 3 1 2 15 25 12 3 3 2 4 3 2 1 2 2 2 4 2 3 3 5 4 4 7 4 3 5 4 4 6 6 11 13 16 14 16 14 20 15
35 23 17 13 21 24 22 26 29 28 27 33 19 3 0 4 25 22 6 2 1 2 3 1 1 3 2 2 3 4 3 3 2 1 2 3 3 2 2 3 4 5 6 6 9 5 7 11 15 14 11 12 18 18
37 35 40 26 29 32 33 37 38 35 25 5 2 2 4 13 3 2 2 2 1 2 1 1 3 2 2 2 3 1 2 1 4 3 3 3 3 2 7 6 6 6 3 3 4 2 9 19 17 16 12 12 14 16
30 28 30 29 32 28 23 20 17 10 5 5 13 8 4 3 3 5 2 2 2 3 2 2 2 0 2 2 3 2 3 2 4 2 3 5 1 3 4 5 7 6 2 7 6 12 14 11 11 16 15 16 14 24
21 21 21 23 24 23 23 21 21 31 22 6 5 4 3 3 4 4 1 3 1 2 2 1 1 0 1 3 3 2 3 1 1 2 3 1 1 2 5 5 5 5 8 9 10 12 15 16 20 16 18 22 26 25
11 13 13 16 18 19 18 15 13 7 5 4 3 4 2 2 1 3 3 3 3 2 2 1 1 2 1 4 2 4 1 1 2 3 4 2 4 5 5 5 4 6 10 12 11 14 16 18 16 21 22 23 27 22
3 7 9 12 11 12 15 14 12 11 3 3 3 2 2 0 2 0 2 2 2 3 0 1 1 2 3 3 1 3 2 1 0 1 2 3 7 5 5 5 6 9 10 10 11 14 15 15 16 16 20 24 27 27
4 7 10 6 9 9 10 8 9 6 4 4 7 3 2 3 2 4 2 2 4 4 2 0 2 4 3 2 4 2 3 3 1 2 3 5 5 7 6 5 7 9 10 11 11 13 17 17 16 18 23 22 23 25
5 5 11 3 5 11 11 7 7 6 4 5 3 2 2 2 2 0 2 3 5 3 1 1 3 2 2 4 2 3 1 1 2 2 3 5 5 5 5 6 9 10 12 11 15 18 19 20 22 21 14 15 22 23
9 17 9 5 4 5 5 9 4 4 6 1 3 2 1 2 2 3 3 4 4 2 2 1 3 5 3 4 2 2 1 1 2 3 4 5 5 5 5 7 9 13 13 15 16 17 18 17 15 12 18 21 22 20
13 14 12 6 5 5 4 5 5 4 1 1 1 1 3 3 3 3 4 5 3 3 2 3 7 3 2 0 1 2 1 1 2 2 3 6 9 6 7 11 12 13 14 14 16 14 18 21 17 17 16 18 17 15
6 13 9 9 4 3 5 3 4 4 3 1 2 2 2 2 2 2 6 6 4 3 7 6 2 1 1 1 1 2 1 1 2 3 3 5 9 10 9 7 8 13 16 17 17 16 16 19 20 18 17 16 18 14
1 10 12 8 7 11 4 3 3 2 2 3 1 2 2 2 3 5 5 6 5 4 3 3 2 1 1 2 4 3 2 2 2 2 2 3 6 7 7 8 11 11 9 8 9 12 17 16 14 14 15 16 14 12
9 9 5 10 4 4 4 5 2 2 2 2 2 2 3 3 3 4 3 7 4 3 2 2 1 2 3 4 4 9 7 8 11 9 9 6 2 3 2 3 7 5 10 12 15 14 16 15 13 12 11 11 9 8
5 8 9 10 5 7 2 8 3 6 3 2 2 3 3 2 1 0 4 3 2 3 3 2 3 4 4 7 9 12 12 8 5 7 7 7 8 7 8 9 11 11 7 12 13 14 14 11 10 9 8 7 8 8
9 7 7 5 7 3 3 5 3 3 3 4 3 3 3 2 2 4 4 2 1 2 4 4 3 2 3 4 4 4 11 11 9 9 7 4 3 5 7 6 10 13 14 14 14 14 12 11 9 8 8 8 7 6
6 10 6 7 4 5 7 5 6 4 4 4 2 3 3 3 3 4 3 1 2 3 3 3 3 3 2 1 2 5 8 9 6 2 5 2 6 7 8 11 12 11 10 10 12 11 10 9 8 7 6 5 5 5
9 4 5 4 4 5 3 4 5 5 4 4 3 3 2 2 4 4 2 2 1 1 2 2 2 2 2 2 1 1 3 4 3 2 3 6 6 2 3 3 2 4 6 6 5 5 6 6 6 6 6 5 6 7
7 5 3 1 1 1 3 2 2 3 4 5 3 6 3 5 4 2 1 1 1 2 3 3 1 0 1 2 3 3 4 3 1 1 2 3 4 1 1 3 4 6 4 3 5 6 6 6 6 6 6 6 6 7
2 3 4 5 3 2 3 3 4 3 3 2 1 6 3 2 1 1 1 3 3 3 3 4 4 5 4 4 5 5 3 2 3 1 5 6 4 3 5 7 7 2 4 6 6 6 6 7 8 9 10 12 13 9
3 3 2 5 4 4 3 2 2 2 1 1 2 2 2 1 1 0 2 2 4 5 8 7 9 7 6 5 6 5 5 4 4 3 3 1 3 3 6 6 4 7 7 6 5 6 7 9 11 12 12 13 15 17
4 2 3 3 4 4 2 1 2 2 1 1 2 2 2 2 4 6 6 7 8 7 6 6 6 8 7 7 6 7 8 10 13 7 3 2 1 1 5 8 6 5 6 7 7 7 7 9 10 12 13 14 14 16
2 2 2 3 3 2 2 2 2 1 2 3 3 3 1 1 2 5 8 9 8 7 9 10 9 8 9 8 5 3 2 4 7 6 6 5 6 6 7 7 7 7 7 9 9 10 11 12 13 13 14 16 16 16
3 3 2 3 1 3 3 3 1 2 2 2 2 2 2 2 2 1 2 2 7 10 9 8 9 11 10 5 1 1 2 3 5 7 8 10 9 9 8 8 8 8 10 11 12 13 13 15 16 16 18 19 19 19
1 2 2 2 3 3 3 3 2 2 2 2 2 0 0 1 2 1 1 1 6 10 10 11 15 12 4 1 2 2 3 5 10 11 10 9 9 9 11 13 13 12 12 14 15 15 16 17 19 19 19 19 20 20
Wind_Direction
301 286 259 254 246 247 246 248 248 243 244 246 262 236 224 223 218 213 181 182 171 151 254 172 182 166 188 205 191 194 96 292 203 207 199 176 214 209 192 267 175 166 163 166 129 115 255 151 131 173 211 68 175 177
322 297 250 230 233 237 241 240 234 237 229 258 259 218 207 214 201 189 119 181 201 130 221 208 202 194 210 200 196 199 187 158 191 205 216 209 147 159 179 195 290 157 178 166 188 201 164 179 85 208 260 131 186 179
352 358 198 205 222 230 237 235 227 227 218 247 228 193 195 197 191 181 161 170 171 157 3 123 217 210 217 212 208 174 262 151 155 187 175 100 235 191 231 250 112 273 156 137 100 215 186 193 250 217 179 133 127 117
2 9 233 225 228 235 234 227 217 215 206 223 212 201 193 182 175 164 155 172 164 120 138 247 201 199 220 210 201 203 123 96 93 159 153 173 234 69 243 232 199 190 139 157 256 194 102 200 215 150 84 102 96 99
345 340 325 273 242 236 223 219 215 209 201 206 169 164 171 178 178 166 155 172 173 119 161 243 157 222 205 200 192 178 162 146 161 200 156 209 139 137 129 261 184 187 174 181 224 151 151 186 185 148 141 157 140 130
339 331 309 247 236 229 232 238 213 202 194 194 195 178 176 177 149 142 117 189 190 154 101 146 312 198 184 187 183 186 193 204 165 215 174 186 201 146 190 235 281 256 251 204 223 153 142 132 139 146 136 145 137 134
336 343 335 255 234 230 225 223 196 198 191 192 190 187 179 161 161 144 180 176 181 158 96 309 287 213 175 155 164 175 171 198 178 196 202 128 169 161 115 271 225 202 200 183 132 113 48 204 181 132 116 104 97 94
343 336 341 341 250 220 206 193 187 191 188 185 190 187 172 160 155 136 101 150 155 106 117 169 243 164 197 142 155 153 164 144 168 177 122 149 122 109 245 232 201 153 104 152 168 304 150 119 103 99 123 122 112 116
348 30 13 31 71 128 168 183 181 181 180 179 169 127 109 135 113 187 133 150 156 115 176 160 195 177 106 123 121 170 160 178 174 159 168 164 153 201 226 216 210 137 154 198 80 78 129 132 131 138 132 127 125 131
14 28 69 103 88 99 117 148 159 158 144 119 114 63 142 175 125 116 115 133 103 65 37 156 324 172 181 140 180 152 232 117 136 161 192 166 228 63 338 329 357 7 92 145 129 93 118 129 142 144 147 143 141 139
17 36 51 88 81 87 102 106 110 112 122 72 92 130 117 121 106 56 81 100 78 123 138 157 218 170 178 221 126 41 145 130 129 178 194 173 249 191 358 350 2 344 357 318 285 77 159 152 146 129 111 113 121 124
7 29 49 56 75 79 75 101 122 103 117 119 116 109 80 34 52 81 14 3 70 206 192 171 162 255 91 272 106 340 106 48 154 166 172 173 128 19 3 340 346 349 53 58 12 100 98 101 115 116 117 112 107 111
358 19 45 54 54 65 72 80 92 109 114 86 43 64 35 332 60 104 204 317 19 324 323 65 130 62 111 35 64 76 85 172 31 47 190 67 58 19 0 356 352 357 65 83 80 85 93 90 87 107 108 107 111 105
349 16 44 51 45 42 43 41 54 106 99 72 96 75 67 3 352 162 157 197 267 306 311 67 75 53 309 52 354 84 124 231 110 148 217 77 3 353 4 6 10 45 62 76 82 89 91 94 90 85 93 109 113 108
7 27 59 59 42 33 29 23 24 53 66 78 58 106 63 287 314 162 171 352 285 260 275 50 74 83 35 87 48 167 91 29 280 108 42 10 332 347 20 25 37 60 69 72 83 89 93 95 94 83 81 97 104 110
69 77 74 63 30 29 20 25 41 58 52 65 41 53 299 91 346 352 15 324 342 327 312 230 100 56 65 96 38 28 98 222 101 17 337 335 354 8 358 13 44 57 70 78 76 84 88 89 95 98 92 94 106 116
62 35 359 26 25 33 23 58 46 47 90 46 3 48 125 117 145 145 19 315 317 295 66 66 88 166 101 60 49 354 141 236 323 353 7 5 358 7 356 25 49 61 65 64 78 82 90 98 100 95 89 88 103 106
37 18 41 21 358 13 45 36 80 66 61 19 68 305 95 67 22 356 331 333 316 23 35 80 90 56 90 129 235 230 165 161 57 45 29 7 360 10 19 47 47 58 69 69 72 80 83 85 86 92 103 108 104 107
35 23 27 35 30 69 67 22 45 90 103 82 3 353 61 90 113 33 358 336 29 31 69 40 61 60 83 0 13 300 279 89 95 52 39 23 15 15 45 63 72 72 75 78 75 76 78 85 93 104 109 117 106 111
309 9 57 62 67 70 63 18 39 87 98 127 31 44 62 37 31 26 24 11 27 42 42 41 74 179 75 9 323 291 316 12 97 88 56 34 26 34 32 56 86 100 95 94 93 102 99 87 86 94 100 102 106 94
83 358 24 44 51 57 74 355 66 83 113 89 305 54 76 57 30 17 10 359 62 36 70 50 71 44 314 64 20 356 343 10 64 41 99 67 31 47 42 61 91 88 94 94 97 82 82 82 83 90 93 87 86 86
8 8 55 36 74 53 77 17 35 331 70 124 72 55 40 38 22 14 344 40 53 29 16 359 341 346 46 43 26 26 24 70 77 69 65 77 66 61 28 12 85 77 73 81 91 94 84 80 80 79 80 78 80 81
5 38 47 13 71 39 352 343 49 6 69 12 26 52 32 47 8 40 73 58 76 18 344 353 349 23 51 39 43 38 36 60 75 66 68 81 83 86 80 81 106 108 98 77 88 89 84 80 80 80 79 74 66 61
35 46 36 44 16 36 338 25 10 16 41 24 36 65 23 355 337 56 75 60 344 345 14 359 5 40 32 42 30 12 12 37 63 58 53 71 73 46 73 88 91 88 98 101 88 79 72 68 65 61 57 58 55 49
69 2 31 7 355 23 28 15 359 22 57 1 42 52 7 320 69 59 67 29 7 4 1 358 26 36 70 62 28 22 28 39 45 55 30 86 131 121 101 91 89 91 98 98 86 75 64 58 55 55 51 46 35 20
68 323 48 352 7 39 357 40 25 14 3 34 21 318 339 50 58 52 41 5 3 9 22 27 21 8 27 33 9 356 359 10 27 141 150 82 54 93 108 129 134 106 100 73 64 44 30 23 21 18 18 16 358 340
54 344 334 236 138 5 51 34 51 52 46 19 343 350 20 59 47 334 323 328 329 335 332 329 283 174 226 298 327 319 321 331 168 171 192 287 324 346 151 129 132 113 106 33 358 352 344 344 336 331 331 330 333 331
139 37 37 330 18 15 91 51 39 24 340 311 350 30 78 80 179 255 259 339 340 359 35 48 25 356 336 336 340 4 64 17 334 200 114 84 91 118 129 136 129 102 335 338 335 326 317 310 307 311 313 313 314 318
37 331 89 19 24 43 47 74 359 274 239 85 93 75 102 140 194 145 56 52 72 75 63 46 30 36 50 61 25 39 53 51 160 104 89 29 356 103 140 126 336 326 321 321 321 307 303 304 307 306 303 300 305 306
324 33 56 35 60 30 295 176 312 295 272 183 122 78 64 28 61 87 88 83 72 57 50 51 43 43 35 32 35 72 79 70 57 75 128 160 170 102 293 312 317 318 307 308 307 301 295 286 281 281 283 289 295 296
303 13 60 44 76 285 271 284 290 305 18 45 40 80 123 140 108 87 78 73 70 65 48 39 41 40 31 26 24 46 52 50 21 23 8 346 328 315 308 304 302 296 293 295 299 305 308 307 305 305 302 298 296 295
359 35 46 76 6 316 9 26 10 68 15 44 12 40 25 59 59 298 138 60 32 29 19 11 1 351 349 342 336 312 328 354 1 348 341 326 317 312 308 306 304 299 297 296 296 295 293 292 294 294 291 290 291 293
19 25 48 56 25 17 3 6 39 72 39 48 16 9 37 109 104 290 13 23 10 359 356 358 349 341 348 36 349 147 45 359 344 336 327 315 304 309 306 299 300 298 295 292 291 289 288 287 285 285 285 286 288 292